When you browse on this site, cookies collect data to enhance your experience and personalize the content and advertising you see.
Visit our Privacy Policy to learn more. By continuing to use the site, you agree to this use of cookies and data.
  • în România
  • Lista ţărilor
  • Pe 7 zile
  • Temperatura apei
  • Meteo pe hartă
  • Widget-uri
  • user-avatar
    Intrare

    Meteo pe oră la Puerto Ayacucho

    Astăzi, 20 August, Marţi

    Timp Temperatura Precipitaţii Vânt Presiune Umiditate
    00:00 +26°C° 0.5 mm 1 m/s 752 mmHg 92%
    01:00 +26°C° 0.5 mm 1 m/s 752 mmHg 93%
    02:00 +25°C° 0.1 mm 1 m/s 752 mmHg 93%
    03:00 +25°C° 0.1 mm 1 m/s 752 mmHg 93%
    04:00 +25°C° 0.1 mm 1 m/s 752 mmHg 93%
    05:00 +25°C° 0.1 mm 1 m/s 753 mmHg 92%
    06:00 +26°C° 0.1 mm 1 m/s 753 mmHg 90%
    07:00 +26°C° 0.1 mm 1 m/s 754 mmHg 89%
    08:00 +28°C° 0.9 mm 1 m/s 754 mmHg 83%
    09:00 +30°C° 0.9 mm 1 m/s 754 mmHg 78%
    10:00 +31°C° 0.9 mm 1 m/s 754 mmHg 73%
    11:00 +31°C° 0.7 mm 2 m/s 753 mmHg 71%
    12:00 +32°C° 0.7 mm 2 m/s 753 mmHg 69%
    13:00 +33°C° 0.7 mm 3 m/s 752 mmHg 68%
    14:00 +32°C° 0.6 mm 2 m/s 752 mmHg 70%
    15:00 +32°C° 0.6 mm 2 m/s 751 mmHg 72%
    16:00 +31°C° 0.6 mm 2 m/s 751 mmHg 74%
    17:00 +30°C° 1.7 mm 2 m/s 751 mmHg 79%
    18:00 +28°C° 1.7 mm 2 m/s 752 mmHg 84%
    19:00 +27°C° 1.7 mm 2 m/s 753 mmHg 88%
    20:00 +26°C° 1.2 mm 2 m/s 753 mmHg 90%
    21:00 +26°C° 1.2 mm 2 m/s 754 mmHg 91%
    22:00 +26°C° 1.2 mm 2 m/s 754 mmHg 92%
    23:00 +25°C° 0.2 mm 1 m/s 754 mmHg 93%

    Mâine, 21 August, Miercuri

    Timp Temperatura Precipitaţii Vânt Presiune Umiditate
    00:00 +25°C° 0.2 mm 1 m/s 753 mmHg 94%
    01:00 +23°C° 0.2 mm 0 m/s 753 mmHg 95%
    02:00 +23°C° 0 mm 0 m/s 753 mmHg 96%
    03:00 +23°C° 0 mm 0 m/s 753 mmHg 96%
    04:00 +22°C° 0 mm 0 m/s 753 mmHg 96%
    05:00 +23°C° 0 mm 0 m/s 753 mmHg 94%
    06:00 +24°C° 0 mm 0 m/s 754 mmHg 92%
    07:00 +24°C° 0 mm 0 m/s 754 mmHg 90%
    08:00 +28°C° 0.5 mm 1 m/s 754 mmHg 85%
    09:00 +29°C° 0.5 mm 1 m/s 754 mmHg 81%
    10:00 +30°C° 0.5 mm 1 m/s 754 mmHg 76%
    11:00 +31°C° 1.8 mm 1 m/s 754 mmHg 71%
    12:00 +32°C° 1.8 mm 1 m/s 753 mmHg 67%
    13:00 +31°C° 1.8 mm 0 m/s 752 mmHg 62%
    14:00 +31°C° 0.2 mm 0 m/s 752 mmHg 62%
    15:00 +30°C° 0.2 mm 0 m/s 751 mmHg 62%
    16:00 +30°C° 0.2 mm 0 m/s 751 mmHg 62%
    17:00 +31°C° 0.1 mm 1 m/s 751 mmHg 68%
    18:00 +29°C° 0.1 mm 1 m/s 752 mmHg 73%
    19:00 +28°C° 0.1 mm 1 m/s 752 mmHg 78%
    20:00 +28°C° 0 mm 1 m/s 752 mmHg 80%
    21:00 +27°C° 0 mm 1 m/s 753 mmHg 82%
    22:00 +27°C° 0 mm 1 m/s 753 mmHg 83%
    23:00 +26°C° 0 mm 1 m/s 753 mmHg 85%

    Poimâine, 22 August, Joi

    Timp Temperatura Precipitaţii Vânt Presiune Umiditate
    00:00 +26°C° 0 mm 1 m/s 752 mmHg 86%
    01:00 +26°C° 0 mm 1 m/s 752 mmHg 87%
    02:00 +25°C° 0.3 mm 1 m/s 752 mmHg 88%
    03:00 +25°C° 0.3 mm 1 m/s 752 mmHg 89%
    04:00 +25°C° 0.3 mm 1 m/s 752 mmHg 90%
    05:00 +25°C° 0 mm 1 m/s 752 mmHg 89%
    06:00 +26°C° 0 mm 1 m/s 753 mmHg 88%
    07:00 +26°C° 0 mm 1 m/s 753 mmHg 87%
    08:00 +27°C° 0.1 mm 1 m/s 754 mmHg 86%
    09:00 +27°C° 0.1 mm 1 m/s 754 mmHg 85%
    10:00 +27°C° 0.1 mm 1 m/s 754 mmHg 83%
    11:00 +29°C° 0.1 mm 1 m/s 753 mmHg 78%
    12:00 +28°C° 0.1 mm 0 m/s 752 mmHg 73%
    13:00 +29°C° 0.1 mm 0 m/s 752 mmHg 67%
    14:00 +31°C° 0.2 mm 1 m/s 751 mmHg 69%
    15:00 +31°C° 0.2 mm 1 m/s 751 mmHg 70%
    16:00 +31°C° 0.2 mm 1 m/s 751 mmHg 72%
    17:00 +30°C° 0.3 mm 1 m/s 751 mmHg 75%
    18:00 +29°C° 0.3 mm 1 m/s 752 mmHg 79%
    19:00 +27°C° 0.3 mm 1 m/s 752 mmHg 82%
    20:00 +27°C° 0.3 mm 1 m/s 752 mmHg 83%
    21:00 +27°C° 0.3 mm 1 m/s 753 mmHg 84%
    22:00 +27°C° 0.3 mm 1 m/s 753 mmHg 85%
    23:00 +26°C° 0 mm 1 m/s 753 mmHg 86%

    23 August, Vineri

    Timp Temperatura Precipitaţii Vânt Presiune Umiditate
    00:00 +26°C° 0 mm 1 m/s 752 mmHg 87%
    01:00 +25°C° 0 mm 1 m/s 752 mmHg 88%
    02:00 +25°C° 0 mm 1 m/s 752 mmHg 89%
    03:00 +25°C° 0 mm 1 m/s 752 mmHg 89%
    04:00 +25°C° 0 mm 1 m/s 752 mmHg 89%
    05:00 +25°C° 0 mm 1 m/s 753 mmHg 88%
    06:00 +26°C° 0 mm 1 m/s 753 mmHg 88%
    07:00 +26°C° 0 mm 1 m/s 753 mmHg 87%
    08:00 +26°C° 0.1 mm 1 m/s 754 mmHg 86%
    09:00 +27°C° 0.1 mm 1 m/s 754 mmHg 84%
    10:00 +25°C° 0.1 mm 0 m/s 754 mmHg 83%
    11:00 +27°C° 0.4 mm 0 m/s 753 mmHg 79%
    12:00 +28°C° 0.4 mm 0 m/s 753 mmHg 75%
    13:00 +31°C° 0.4 mm 1 m/s 752 mmHg 70%
    14:00 +29°C° 0.7 mm 0 m/s 752 mmHg 72%
    15:00 +28°C° 0.7 mm 0 m/s 752 mmHg 73%
    16:00 +28°C° 0.7 mm 0 m/s 751 mmHg 75%
    17:00 +27°C° 0 mm 0 m/s 752 mmHg 78%
    18:00 +26°C° 0 mm 0 m/s 752 mmHg 82%
    19:00 +25°C° 0 mm 0 m/s 752 mmHg 85%
    20:00 +25°C° 0 mm 0 m/s 752 mmHg 86%
    21:00 +27°C° 0 mm 1 m/s 753 mmHg 87%
    22:00 +26°C° 0 mm 1 m/s 753 mmHg 88%
    23:00 +26°C° 0 mm 1 m/s 753 mmHg 88%

    24 August, Sâmbătă

    Timp Temperatura Precipitaţii Vânt Presiune Umiditate
    00:00 +26°C° 0 mm 1 m/s 752 mmHg 88%
    01:00 +24°C° 0 mm 0 m/s 752 mmHg 88%
    02:00 +25°C° 0 mm 1 m/s 752 mmHg 89%
    03:00 +25°C° 0 mm 1 m/s 752 mmHg 89%
    04:00 +25°C° 0 mm 1 m/s 752 mmHg 90%
    05:00 +25°C° 0 mm 1 m/s 753 mmHg 88%
    06:00 +26°C° 0 mm 1 m/s 753 mmHg 86%
    07:00 +27°C° 0 mm 1 m/s 754 mmHg 84%
    08:00 +28°C° 0.1 mm 1 m/s 754 mmHg 78%
    09:00 +30°C° 0.1 mm 1 m/s 754 mmHg 72%
    10:00 +32°C° 0.1 mm 1 m/s 754 mmHg 66%
    11:00 +32°C° 0.2 mm 1 m/s 753 mmHg 65%
    12:00 +33°C° 0.2 mm 1 m/s 752 mmHg 63%
    13:00 +33°C° 0.2 mm 1 m/s 751 mmHg 62%
    14:00 +33°C° 0.6 mm 1 m/s 751 mmHg 64%
    15:00 +33°C° 0.6 mm 1 m/s 751 mmHg 67%
    16:00 +32°C° 0.6 mm 1 m/s 750 mmHg 69%
    17:00 +31°C° 0.8 mm 1 m/s 751 mmHg 75%
    18:00 +29°C° 0.8 mm 1 m/s 751 mmHg 80%
    19:00 +28°C° 0.8 mm 1 m/s 751 mmHg 86%
    20:00 +27°C° 0.4 mm 1 m/s 752 mmHg 87%
    21:00 +27°C° 0.4 mm 1 m/s 752 mmHg 88%
    22:00 +26°C° 0.4 mm 1 m/s 752 mmHg 89%
    23:00 +26°C° 0.2 mm 1 m/s 752 mmHg 89%

    25 August, Duminică

    Timp Temperatura Precipitaţii Vânt Presiune Umiditate
    00:00 +26°C° 0.2 mm 1 m/s 752 mmHg 90%
    01:00 +26°C° 0.2 mm 1 m/s 751 mmHg 90%
    02:00 +25°C° 0 mm 1 m/s 751 mmHg 90%
    03:00 +25°C° 0 mm 1 m/s 751 mmHg 90%
    04:00 +25°C° 0 mm 1 m/s 751 mmHg 91%
    05:00 +26°C° 0.1 mm 1 m/s 751 mmHg 89%
    06:00 +26°C° 0.1 mm 1 m/s 752 mmHg 88%
    07:00 +27°C° 0.1 mm 1 m/s 752 mmHg 87%
    08:00 +28°C° 0 mm 1 m/s 752 mmHg 82%
    09:00 +30°C° 0 mm 1 m/s 753 mmHg 76%
    10:00 +31°C° 0 mm 1 m/s 753 mmHg 71%
    11:00 +32°C° 0 mm 1 m/s 752 mmHg 67%
    12:00 +32°C° 0 mm 1 m/s 751 mmHg 64%
    13:00 +33°C° 0 mm 1 m/s 750 mmHg 60%
    14:00 +33°C° 0.5 mm 1 m/s 750 mmHg 62%
    15:00 +33°C° 0.5 mm 1 m/s 749 mmHg 64%
    16:00 +34°C° 0.5 mm 2 m/s 749 mmHg 66%
    17:00 +31°C° 0.6 mm 2 m/s 749 mmHg 73%
    18:00 +29°C° 0.6 mm 2 m/s 750 mmHg 80%
    19:00 +27°C° 0.6 mm 2 m/s 750 mmHg 86%
    20:00 +27°C° 0.4 mm 1 m/s 751 mmHg 87%
    21:00 +27°C° 0.4 mm 1 m/s 751 mmHg 87%
    22:00 +27°C° 0.4 mm 1 m/s 752 mmHg 87%
    23:00 +26°C° 0 mm 1 m/s 751 mmHg 88%
    Arată mai mult